Regional Weather Roundup
Issued by NWS

Home | Current Version | Previous Version | Graphics & Text | Print | Product List | Glossary On
Versions: 1 2 3 4 5 6 7 8 9 10 11 12 13 14 15 16 17 18 19 20 21 22 23 24 25 26 27 28 29 30 31 32 33 34 35 36 37 38 39 40 41 42 43 44 45 46 47 48 49 50
000
ASUS43 KLOT 040921
RWRIL

ILLINOIS REGIONAL WEATHER ROUNDUP
NATIONAL WEATHER SERVICE CHICAGO/ROMEOVILLE IL
400 AM CDT SAT JUL 04 2015

NOTE: "FAIR" INDICATES FEW OR NO CLOUDS BELOW 12,000 FEET WITH NO
SIGNIFICANT WEATHER AND/OR OBSTRUCTIONS TO VISIBILITY.

* THESE STATIONS ARE NOT UNDER NWS QUALITY CONTROL. THEY ALSO MAY NOT
  REPORT WEATHER SUCH AS PRECIPITATION OR FOG.

ILZ001-002-007-009-015-016-024-041000-
NORTHWEST ILLINOIS

CITY           SKY/WX    TMP DP  RH WIND       PRES   REMARKS
MOLINE         CLEAR     58  55  90 CALM      29.97S FOG
STERLING*        N/A     54  54 100 CALM      29.98R VSB 1/4
SAVANNA*       CLEAR     55  54  94 CALM      29.97S FOG
$$

ILZ003-004-008-010-011-017-018-041000-
NORTH CENTRAL ILLINOIS

CITY           SKY/WX    TMP DP  RH WIND       PRES   REMARKS
ROCKFORD       CLEAR     59  56  89 CALM      29.98R
FREEPORT*      CLEAR     55  52  90 CALM      29.99S
ROCHELLE*      CLEAR     55  55  99 CALM      29.98S FOG
DE KALB*       CLEAR     58  55  90 CALM      29.98S
PERU*          CLEAR     60  57  90 CALM      29.97F
$$

ILZ005-006-012>014-019>023-041000-
NORTHEAST ILLINOIS

CITY           SKY/WX    TMP DP  RH WIND       PRES   REMARKS
CHICAGO-OHARE  CLEAR     61  54  77 W3        29.95S
CHICAGO-MIDWAY CLEAR     63  56  78 CALM      29.96R
AURORA         CLEAR     57  54  89 CALM      29.97R FOG
LANSING*       CLEAR     57  54  91 CALM      29.96R FOG
JOLIET*        CLEAR     58  57  97 CALM      29.97R FOG
WAUKEGAN       CLEAR     57  53  86 CALM      29.95R
DUPAGE AIRPORT CLEAR     58  54  86 CALM      29.96S
KANKAKEE*      CLEAR     58  58  97 CALM      29.97R FOG
WHEELING       CLEAR     59  54  83 CALM      29.96F
MORRIS*        CLEAR     61  56  85 CALM      29.93R
ROMEOVILLE*    CLEAR     59  56  91 CALM      29.97R FOG
NORTHERLY ISL    N/A     66  53  63 SW8         N/A
$$

LMZ740>746-041000-
SOUTHERN LAKE MICHIGAN

STATION/POSITION SKY/WX   TEMP    WIND        PRES    VSBY  WAVE
                          AIR SEA DIR/SP/G                  HT/PER
                          (F)     (DEG/KT/KT) (MB)    (MI)  (FT/S)
HARRISON CRIB              65     260/  7/  8   N/A
BURNHAM HARBOR             66     260/  7       N/A
CALUMET HARBOR             62      CALM  /  1   N/A
BURNS HARBOR               62     210/  2/  4 1014.9S
MICHIGAN CITY              59     200/  4/  4   N/A
MICHIGAN CITY 6N           62 63  230/  2/  4   N/A           0
ST. JOSEPH                 60 62                N/A           0
$$

ILZ025>027-034>036-040-047-049-050-058-095>099-041000-
WEST-CENTRAL ILLINOIS

CITY           SKY/WX    TMP DP  RH WIND       PRES   REMARKS
QUINCY         CLEAR     62  59  90 N6        29.96F
GALESBURG*     CLEAR     56  56  97 CALM      29.97F FOG
MACOMB*        CLEAR     57  56  98 CALM      29.99F FOG
JACKSONVILLE*  CLEAR     63  61  95 CALM      29.95F FOG
PITTSFIELD*    CLEAR     63  60  91 CALM      29.96F
$$

ILZ028>032-037-038-041>044-048-051>054-059>061-041000-
CENTRAL ILLINOIS

CITY           SKY/WX    TMP DP  RH WIND       PRES   REMARKS
PONTIAC        CLEAR     58  58  99 CALM      29.97S
BLOOMINGTON    CLEAR     62  59  90 N5        29.98S
DECATUR        CLEAR     59  58  96 CALM      29.96S FOG
PEORIA         CLEAR     62  58  86 CALM      29.97S FOG
LACON*         CLEAR     58  57  96 CALM      29.97R FOG
LINCOLN*       CLEAR     60  58  92 CALM      29.97S FOG
SPRINGFIELD    FOG       62  59  90 CALM      29.96S VSB 1/4
TAYLORVILLE    FOG       57  57 100 CALM      29.95F VSB 1/4
$$

ILZ033-039-045-046-055>057-062-063-041000-
EAST-CENTRAL ILLINOIS

CITY           SKY/WX    TMP DP  RH WIND       PRES   REMARKS
CHAMPAIGN      CLEAR     57  55  93 N3        29.96S FOG
DANVILLE*      CLEAR     56  56  99 CALM      29.93S FOG
RANTOUL*       CLEAR     60  58  94 NW5       29.96S FOG
MATTOON        CLEAR     61  59  93 CALM      29.94S FOG
PARIS*           N/A     60  59  98 CALM      29.96S FOG
$$

ILZ079-100>102-041000-
SOUTHWEST ILLINOIS

CITY           SKY/WX    TMP DP  RH WIND       PRES   REMARKS
ALTON            N/A     64  64 100 CALM      29.95S FOG
BELLEVILLE     CLEAR     66  66 100 N3        29.92F
CAHOKIA*       CLEAR     67  65  93 CALM      29.94S FOG
SPARTA*        CLEAR     66  65  97 NE5       29.94S FOG
$$

ILZ064>066-069>071-074>076-080>082-084>086-088>090-092>094-041000-
SOUTH-CENTRAL ILLINOIS

CITY           SKY/WX    TMP DP  RH WIND       PRES   REMARKS
CARBONDALE     CLEAR     68  66  93 CALM      29.92S FOG
CAIRO*         MOCLDY    69  69 100 CALM      29.91R FOG
EFFINGHAM*     CLEAR     63  60  90 CALM      29.96S FOG
MARION         FOG       68  68 100 CALM      29.93S VSB 1
MT. VERNON     CLEAR     64  61  88 N5        29.94S
CENTRALIA*     CLEAR     64  62  92 CALM      29.94S FOG
SALEM*         CLEAR     67  64  89 CALM      29.95S FOG
METROPOLIS*    FOG       68  68 100 CALM      29.92R VSB 1/4
$$

ILZ067-068-072-073-078-083-087-091-041000-
SOUTHEAST ILLINOIS

CITY           SKY/WX    TMP DP  RH WIND       PRES   REMARKS
LAWRENCEVILLE  PTCLDY    65  63  93 CALM      29.94R FOG
FLORA*         CLEAR     64  63  98 CALM      29.95R FOG
FAIRFIELD*     CLEAR     66  66  98 N3        29.92F FOG
HARRISBURG*    CLEAR     68  68 100 CALM      29.94S FOG
ROBINSON*      CLEAR     63  62  97 CALM      29.95R FOG
CARMI*         CLEAR     67  62  85 N5        29.92S HAZE
$$

ABBREVIATIONS USED IN REMARKS
   TC - TEMPERATURE IN CELSIUS
  WCI - WIND CHILL INDEX
   HX - HEAT INDEX
  VSB - VISIBILITY
$$



USA.gov is the U.S. government's official web portal to all federal, state and local government web resources and services.